Starlink 31510

operational
NORAD ID: 59575 Int'l Des: 2024-076 Owner: SPXS Country: US Constellation: starlink
LEOCIRCULAR

关于 Starlink 31510

正在加载描述...

实时位置

正在加载3D地球...

即将过境

高度历史

Altitude vs Time

uPlot chart will show altitude changes over time

两行轨道根数

1 59575U 24076M 25260.03622850 -.00001548 00000-0 -46754-4 0 9991
2 59575 43.0013 266.3373 0001032 277.0021 83.0713 15.27562911 79983
Epoch: Sep 17, 2025 • Age: 24 hours

当前状态

高度 484.4 km
速度 7.63 km/s
星下点 31.71°N, 64.64°W
发射日期 Apr 23, 2024
运行时间 1.4 years
类型 internet

技术详情

分类 Payload
质量 730.00 kg
干质量 700.00 kg
总质量 730.00 kg
长度 0.30 m
直径 4.10 m
跨度 29.00 m
形状 Box + pan
制造商 SPXS
平台类型 Starlink V2M
阶段状态 In Orbit
所有者/国家 SPXS/US

大型星座

Loading constellations...